Location: Hossz�sor
(46.3167°N, 22.6167°E)
Time: 16:56:11
(UTC+00:00)

Daily predictions for brighter satellites

Satellite Brightness Start Highest point End
(mag) Time Altitude Azimuth Time Altitude Azimuth Time Altitude Azimuth
Cosmos 1066 Rocket 4.4 16:57:27 10° NNW 17:02:53 76° W 17:08:13 10° S
Cosmos 968 Rocket 4.4 17:00:19 10° SSE 17:04:36 26° E 17:08:56 10° NE
Cosmos 1741 Rocket 4.3 16:59:17 10° SSW 17:04:37 77° WNW 17:09:59 10° NNE
Cosmos 1743 2.7 17:02:15 10° S 17:06:03 66° E 17:09:54 10° NNE
ERBS 3.5 17:04:19 10° S 17:06:58 23° SE 17:09:37 10° ENE
Cosmos 1975 4.1 17:04:07 10° SE 17:07:02 20° E 17:09:57 10° NE
Cosmos 2242 Rocket 4.5 17:02:41 10° NNW 17:07:12 58° W 17:11:40 10° S
BREEZE-M DEB (TANK) 4.1 16:59:16 10° WNW 17:07:57 43° SW 17:11:04 10° SSE
CZ-4C R/B 4.1 17:04:46 10° N 17:08:13 51° WNW 17:11:42 10° SSW
Geosat 4.1 17:05:29 10° NNE 17:10:33 88° WNW 17:15:34 10° SSW
USA 305 2.9 17:06:23 10° SW 17:10:36 85° SE 17:14:50 10° ENE
Cosmos 1536 3.3 17:06:41 10° SSW 17:10:41 68° W 17:14:43 10° N
Lacrosse 5 rocket 3.5 17:08:10 10° NW 17:11:40 21° N 17:15:08 10° NE
CZ-2C R/B 2.8 17:06:12 10° NNE 17:11:41 86° WNW 17:17:14 10° SSW
OBJECT-B 2.4 17:09:38 10° ESE 17:11:50 17° ENE 17:14:03 10° NNE
Cosmos 921 Rocket 3.5 17:12:08 10° N 17:16:17 40° ENE 17:20:20 10° SE
ISS -1.7 17:16:23 10° SSE 17:17:55 13° SE 17:19:20 10° ESE
SL-4 R/B 1.9 17:17:46 10° WNW 17:21:10 64° SSW 17:24:41 10° SE
USA 307 2.9 17:17:02 10° WSW 17:21:15 89° NNW 17:25:31 10° ENE
H-2A R/B 3.9 17:22:13 10° SSW 17:26:42 34° W 17:31:18 10° NNW
Cosmos 1842 3.4 17:25:10 10° N 17:29:03 52° ENE 17:32:53 10° SSE
SJ-6B 3.8 17:28:52 10° SE 17:32:28 30° ENE 17:36:07 10° N
Cosmos 1400 Rocket 4.4 17:31:48 12° ESE 17:33:44 17° E 17:36:22 10° NE
Cosmos 2221 Rocket 3.5 17:29:53 10° N 17:34:19 66° E 17:38:41 10° SSE
Cosmos 1378 Rocket 4.2 17:31:48 10° N 17:35:51 36° ENE 17:39:55 10° SE
USA 306 3.2 17:33:51 10° WSW 17:38:03 67° NNW 17:42:17 10° NE
ATLAS CENTAUR R/B 3.6 17:35:05 10° N 17:38:06 17° NNE 17:41:01 11° ENE
YAOGAN 1 3.4 17:34:04 10° S 17:38:18 54° W 17:42:34 10° NNW
USA 308 3.1 17:35:59 10° WSW 17:40:12 70° NNW 17:44:28 10° NE
COSMOS 2406 3.4 17:34:50 10° NNW 17:40:38 80° WSW 17:46:23 10° SSE
Cosmos 1674 4.3 17:40:25 10° NNE 17:42:44 16° ENE 17:43:13 15° ENE
Cosmos 1833 Rocket 3.1 17:39:04 10° NNW 17:44:38 64° WSW 17:50:09 10° SSE
Inspiration4 3.4 17:42:47 10° SSW 17:46:38 33° SE 17:49:12 18° E
Cosmos 2074 Rocket 4.2 17:40:47 10° SSE 17:46:42 48° E 17:52:41 10° NNE
Okean-O 2.8 17:42:28 10° S 17:46:53 75° WSW 17:51:21 10° NNW
Meteor 1-21 4.3 17:41:36 10° N 17:47:17 62° ENE 17:52:51 10° SSE
In-Cosmos 22 4.5 17:43:26 10° N 17:48:29 42° ENE 17:52:46 14° SE
Cosmos 1674 Rocket 3.6 17:45:47 10° N 17:50:06 56° ENE 17:54:22 10° SSE
BREEZE-M R/B 2.6 17:46:28 10° WSW 17:50:53 76° NNW 17:53:44 15° ENE
Cosmos 1932 4.5 17:45:26 10° SSW 17:51:33 57° ESE 17:57:39 10° NE
Cosmos 2082 Rocket 2.2 17:49:51 10° NNW 17:55:37 80° ENE 18:00:52 12° SSE
CZ-4B R/B 1.5 17:53:54 10° N 17:56:54 64° WNW 17:59:54 10° SSW
Lacrosse 4 Rocket 1.7 17:53:40 10° SW 17:57:41 66° WNW 18:01:43 10° NNE
CSL-04 Rocket 3.7 17:53:29 10° SSE 17:58:47 83° WSW 18:04:12 10° NNW
Cosmos 2181 Rocket 4.1 17:53:39 10° N 17:59:49 79° W 18:06:01 10° S
USA 186 1.2 17:58:38 26° SSE 17:59:57 73° ENE 18:02:46 10° N
USA 276 4.1 18:00:43 10° S 18:01:43 15° S 18:01:43 15° S
Resurs 01 Rocket 2.8 18:02:48 22° E 18:03:44 24° ENE 18:07:16 10° NNE
BREEZE-M DEB (TANK) 4.3 18:00:30 10° WNW 18:05:14 88° SSW 18:18:03 20° ESE
Okean 2 3.2 18:02:44 10° N 18:06:50 77° E 18:10:11 15° SSE
Cosmos 836 Rocket 4.5 18:04:45 10° NNW 18:10:02 68° ENE 18:13:28 22° SE
CZ-4 R/B 4.0 18:11:14 10° SW 18:14:04 20° W 18:16:56 10° NW
Cosmos 1340 2.6 18:11:07 10° NNW 18:14:55 87° W 18:17:23 21° S
Ariane Rocket 3.4 18:12:57 28° ESE 18:15:12 45° ENE 18:20:01 10° N
Helios 1A Rocket 3.0 18:13:27 30° SE 18:15:14 56° ENE 18:19:16 10° N
CSL-04 DEB 4.4 18:11:23 10° NNE 18:15:20 53° ESE 18:18:50 12° S
Cosmos 1733 Rocket 3.7 18:11:13 10° SSW 18:15:27 56° W 18:19:44 10° N
Cosmos 1782 Rocket 4.4 18:15:36 30° E 18:15:36 30° E 18:19:24 10° NNE
PSLV R/B 4.2 18:12:16 10° N 18:16:28 71° WNW 18:20:35 10° SSW
Cosmos 2278 Rocket 3.1 18:11:50 10° SW 18:17:22 52° WNW 18:22:56 10° NNE
IRS-1A Rocket 4.5 18:14:10 23° SE 18:17:39 55° ENE 18:23:23 10° N
Cosmos 2297 3.9 18:14:53 10° S 18:20:14 45° ESE 18:25:39 10° NE
H-2A R/B 4.3 18:16:54 10° N 18:20:31 27° WNW 18:24:03 10° WSW
Cosmos 2184 Rocket 4.0 18:18:10 10° S 18:24:32 87° E 18:30:54 10° N
Cosmos 2369 Rocket 4.2 18:30:35 12° NE 18:30:35 12° NE 18:31:10 10° NE
MOS 1 4.2 18:25:18 25° SSE 18:28:37 69° ENE 18:34:17 10° N
Resurs 1-3 3.5 18:28:58 37° SSE 18:30:37 73° ENE 18:35:01 10° N
SeaSat 1 3.8 18:26:19 10° S 18:30:51 37° WSW 18:35:26 10° NW
Cosmos 1503 Rocket 4.0 18:27:13 10° S 18:32:20 58° ESE 18:37:27 10° NNE
Cosmos 1346 Rocket 3.5 18:29:38 10° N 18:32:59 37° ENE 18:32:59 37° ENE
Cosmos 1626 3.2 18:30:23 10° N 18:32:53 30° NE 18:32:53 30° NE
COSMOS 2455 2.9 18:28:09 10° NNW 18:34:10 62° NE 18:36:25 38° ESE
SPOT 1/Viking Rocket 4.2 18:35:02 33° E 18:35:36 34° ENE 18:40:15 10° N
Landsat 7 4.0 18:37:11 46° E 18:37:55 50° ENE 18:42:32 10° N
Cosmos 2327 Rocket 4.4 18:34:13 10° S 18:40:21 75° E 18:46:39 10° NNE
Cosmos 1707 3.6 18:38:06 10° NNW 18:41:53 49° W 18:44:05 22° SSW
Cosmos 2154 Rocket 3.9 18:35:55 10° S 18:42:14 84° E 18:48:38 10° N
ERBS 3.3 18:39:39 10° WSW 18:42:48 43° NNW 18:43:38 35° N
IGS 5A 3.4 18:42:37 62° E 18:42:49 64° ENE 18:46:55 10° N
Cosmos 1238 Rocket 4.0 18:36:28 10° S 18:43:04 85° W 18:49:17 10° N
Cosmos 1610 Rocket 4.4 18:37:03 10° S 18:43:21 82° E 18:49:35 10° N
OBJECT-B 2.8 18:41:39 14° SSW 18:43:44 27° W 18:46:32 10° NW
Cosmos 1354 Rocket 3.9 18:38:43 10° S 18:43:53 62° ESE 18:49:05 10° NNE
Cosmos 1975 Rocket 3.2 18:40:46 10° N 18:44:56 52° ENE 18:44:56 52° ENE
Cosmos 1943 Rocket 2.1 18:40:01 10° S 18:45:29 63° ESE 18:51:02 10° NNE
EO 1 Delta rocket 3.7 18:46:28 52° SSE 18:47:33 76° ENE 18:52:28 10° N
USA 305 4.3 18:46:59 10° W 18:50:51 34° NNW 18:52:48 22° NE
Lacrosse 5 rocket 2.6 18:47:48 10° NW 18:51:57 33° NNE 18:52:32 32° NE
ISS -1.9 18:50:54 10° SW 18:52:24 24° SW 18:52:24 24° SW
Cosmos 1295 Rocket 4.4 18:48:09 10° S 18:54:20 89° E 19:00:39 10° N
Cosmos 1461 3.0 18:54:19 10° NNW 18:57:53 64° N 18:57:53 64° N
SL-4 R/B 4.4 18:59:02 10° WSW 19:00:08 11° SW 19:00:24 11° SW
Meteor 1-12 Rocket 4.2 18:57:30 31° S 19:00:31 76° E 19:06:33 10° NNE
USA 307 4.4 18:57:43 10° WNW 19:01:35 33° NNW 19:03:04 26° NNE
Cosmos 1908 Rocket 4.4 18:58:31 10° SSW 19:02:52 49° WNW 19:07:14 10° N
SPOT 5 4.3 19:03:49 28° NE 19:03:49 28° NE 19:07:43 10° N
Nadezhda 3 Rocket 4.2 18:57:35 10° NNW 19:03:42 68° W 19:07:20 26° S
KORONAS-FOTON 4.3 19:00:08 10° NNW 19:03:40 57° W 19:03:40 57° W
USA 281 3.1 18:57:45 10° NNE 19:04:21 80° ESE 19:10:56 10° SSW
Cosmos 1025 Rocket 3.9 19:00:24 10° N 19:03:30 39° NNE 19:03:30 39° NNE
SL-8 Rocket 4.0 19:07:44 54° E 19:07:52 54° E 19:13:58 10° NNE
Cosmos 1400 Rocket 3.9 19:07:16 20° SW 19:09:50 44° WNW 19:13:47 10° N
Spot 2 Rocket 4.3 19:11:29 37° NE 19:11:29 37° NE 19:15:22 10° N
Meteor 1-24 Rocket 4.4 19:06:37 10° N 19:10:41 36° NE 19:10:41 36° NE
Meteor 1-15 Rocket 4.3 19:13:50 59° ENE 19:13:50 59° ENE 19:18:45 10° NNE
Cosmos 1339 Rocket 4.3 19:09:37 10° N 19:15:55 73° E 19:16:36 66° SE
ATLAS CENTAUR R/B 1.9 19:13:05 10° NNW 19:17:09 63° N 19:17:09 63° N
Cosmos 1674 4.0 19:14:55 10° NNW 19:18:00 37° WNW 19:18:00 37° WNW
USA 306 4.4 19:14:44 10° WNW 19:18:31 30° N 19:19:11 29° N
Cosmos 2341 Rocket 3.9 19:18:42 56° S 19:20:10 82° E 19:26:33 10° N
USA 308 4.4 19:16:53 10° WNW 19:20:41 31° N 19:21:18 29° N
Inspiration4 3.8 19:22:27 10° WSW 19:25:24 41° W 19:25:24 41° W
CZ-3 Stage 3 4.5 19:15:30 10° SW 19:27:23 23° SSW 19:27:42 23° S
MetOp-B 4.1 19:31:30 79° WSW 19:31:30 79° WSW 19:36:52 10° NNW
Meteor 2-5 Rocket 3.8 19:25:59 10° N 19:30:48 62° NNE 19:30:48 62° NNE
SPOT 3 Rocket 3.7 19:36:01 66° W 19:36:01 66° W 19:41:02 10° NNW
Cosmos 773 Rocket 4.4 19:32:31 10° NNW 19:37:33 58° W 19:37:33 58° W
Resurs 01 Rocket 2.8 19:40:22 38° W 19:40:22 38° W 19:44:12 10° NNW
Cosmos 2218 Rocket 3.9 19:44:36 73° NNE 19:44:36 73° NNE 19:50:11 10° N
Cosmos 2366 rocket 4.0 19:46:35 71° NNE 19:46:35 71° NNE 19:52:03 10° N
SJ 16-02 4.0 19:50:06 12° NNE 19:50:06 12° NNE 19:50:26 10° NNE
Cosmos 2297 Rocket 4.4 19:43:35 10° N 19:46:06 13° NE 19:46:27 13° NE
ARIANE 5 R/B 4.4 19:54:54 26° N 19:54:54 26° N 19:56:54 10° N
Terra 3.5 19:56:15 27° N 19:56:15 27° N 19:58:35 10° N
ERS-1 Rocket 4.1 19:59:20 39° N 19:59:20 39° N 20:02:30 10° N
Cosmos 2227 Rocket 4.5 20:04:15 10° N 20:07:02 14° NE 20:07:02 14° NE
Cosmos 2369 Rocket 3.2 20:12:19 40° N 20:12:19 40° N 20:16:04 10° NNE
COSMOS 2455 4.4 20:14:47 10° NW 20:19:34 26° WSW 20:19:34 26° WSW
Cosmos 1943 Rocket 4.2 20:25:08 10° WSW 20:29:41 25° NW 20:34:19 10° N
Lacrosse 5 rocket 4.1 20:26:58 10° NW 20:28:07 17° WNW 20:28:07 17° WNW
Cosmos 2297 Rocket 4.2 21:25:57 10° NNW 21:28:14 24° N 21:28:14 24° N
Cosmos 2227 Rocket 4.3 21:46:47 10° NNW 21:48:50 22° NNW 21:48:50 22° NNW
Cosmos 2263 Rocket 4.5 22:18:42 10° N 22:21:01 19° NNE 22:21:01 19° NNE
CENTAUR R/B 4.0 22:53:55 34° NNW 22:53:55 34° NNW 22:59:44 10° NNE
Cosmos 1980 Rocket 4.0 23:35:31 27° NNE 23:35:31 27° NNE 23:37:57 10° NNE
SL-16 R/B 4.2 23:39:54 22° ENE 23:39:54 22° ENE 23:42:17 10° NE
Resurs 1-4 Rocket 4.1 23:39:40 10° NNE 23:41:56 25° NE 23:41:56 25° NE
ATLAS 3B R/B 3.4 23:50:47 47° NNE 23:50:47 47° NNE 23:55:30 10° NE
